Regional Weather Roundup
Issued by NWS Grand Forks, ND

Home | Current Version | Previous Version | Text Only | Print | Product List | Glossary Off
Versions: 1 2 3 4 5 6 7 8 9 10 11 12 13 14 15 16 17 18 19 20 21 22 23 24 25 26 27 28 29 30 31 32 33 34 35 36 37 38 39 40 41 42 43 44 45 46 47 48 49 50

000
ASUS43 KFGF 021531
RWRFGF
PRAIRIE TO PINES  WEATHER ROUNDUP
NATIONAL WEATHER SERVICE EASTERN NORTH DAKOTA/GRAND FORKS ND
1000 AM CDT TUE SEP 02 2014

 **SATELLITE DATA USED TO AUGMENT SKY COVER AT AUTOMATED STATIONS**
 *****  WEATHER ACROSS EASTERN NORTH DAKOTA  *****

CITY           SKY/WX    TMP DP  RH WIND       PRES   REMARKS
GRAND FORKS    CLOUDY    62  54  74 W7        29.79R
GRAND FRKS AFB DRIZZLE   61  55  82 W7        29.81R
GRAND FRKS NWS   N/A     61 N/A N/A W5          N/A
DEVILS LAKE    PTSUNNY   61  54  77 SW20      29.75S
FARGO          MOSUNNY   64  53  67 SW10      29.83S
WAHPETON ARPT  SUNNY     66  52  59 SW7       29.86S
$$

 ***** WEATHER ACROSS CENTRAL AND WESTERN NORTH DAKOTA  *****

CITY           SKY/WX    TMP DP  RH WIND       PRES   REMARKS
BISMARCK       MOSUNNY   61  51  70 S5        29.83F
MINOT          MOSUNNY   65  51  60 S14       29.72F
JAMESTOWN      MOSUNNY   64  53  67 SW8       29.81F
MINOT AFB      SUNNY     64  57  78 S8        29.72F
GARRISON         N/A     65  52  62 SW13G20   29.77S
WILLISTON      MOSUNNY   63  47  55 W15       29.78R
DICKINSON      SUNNY     63  47  55 W14       29.83R
HETTINGER      MOSUNNY   62  49  62 W8        29.88F
$$

 *****  OTHER AIRPORT OBSERVATIONS IN OUR AREA  *****

CITY           SKY/WX    TMP DP  RH WIND       PRES   REMARKS
WALHALLA         N/A     66  48  52 SW10      29.73F
GRAFTON AIRPOR FAIR      59  55  88 SW3       29.77S
VALLEY CITY AR FAIR      64  54  68 S8        29.82S
CANDO          PTSUNNY   63  54  72 SW12      29.76R
CAVALIER APRT  PTSUNNY   57  52  82 S3        29.75S
GWINNER        SUNNY     64  55  72 SW7       29.87S
ROLLA          FAIR      61  52  72 SW14      29.75S
 ***** THE ABOVE OBSERVATIONS ARE NON NWS ARE NOT QUALITY
       CONTROLLED AND MAY MIS-REPORT RAIN FOR SNOW...
$$

  *****  WEATHER ACROSS NORTHERN MINNESOTA  *****

CITY           SKY/WX    TMP DP  RH WIND       PRES   REMARKS
FLAG ISLAND    MOSUNNY   61  54  77 CALM      29.74S
WARROAD        MOSUNNY   61  54  77 SW7       29.77S
ROSEAU         MOSUNNY   63  54  72 CALM      29.77S
HALLOCK        PTSUNNY   57  54  88 SE3       29.76S
THF RVR FALLS  PTSUNNY   61  54  77 SW8       29.80S
BAUDETTE       SUNNY     60  53  77 SW5       29.76S
WASKISH        MOSUNNY   64  55  72 SW9       29.79S
CROOKSTON      MOSUNNY   61  54  77 S6        29.80S
$$
  *****  WEATHER ACROSS CENTRAL AND WEST MINNESOTA  *****

CITY           SKY/WX    TMP DP  RH WIND       PRES   REMARKS
FOSSTON        SUNNY     61  55  82 SW9       29.82S
BEMIDJI        MOSUNNY   65  52  62 SW7       29.81S
PARK RAPIDS    SUNNY     65  55  70 W10       29.85S
ELBOW LAKE     FAIR      65  55  71 SW5       29.88R
WADENA         SUNNY     64  57  77 SW5       29.86S
DETROIT LAKES  SUNNY     64  54  68 SW7       29.86S
MOORHEAD       MOSUNNY   64  57  77 SW6       29.84S
FERGUS FALLS   SUNNY     64  52  63 SW5       29.87S
MORRIS MN      SUNNY     70  57  64 SW5       29.88R
STAPLES        MOSUNNY   66  55  68 W7        29.86S
$$
  *****  WEATHER ELSEWHERE ACROSS MINNESOTA  *****

CITY           SKY/WX    TMP DP  RH WIND       PRES   REMARKS
DULUTH         MOSUNNY   66  52  60 NW8       29.85R
INTRNTL FALLS  SUNNY     61  53  75 W7        29.77S
ELY            MOSUNNY   63  52  67 SW7       29.81R
CLOQUET        SUNNY     66  52  59 W8        29.85S
WHEATON        SUNNY     66  55  68 SW7       29.89R
BRAINERD       MOSUNNY   63  56  78 SW8       29.87S
HIBBING        SUNNY     64  55  72 SW3       29.82F
ALEXANDRIA     SUNNY     67  55  65 W9        29.90R
SAINT CLOUD    SUNNY     70  56  61 CALM      29.88S
MINNEAPOLIS    SUNNY     68  57  68 SW6       29.89R
$$

  *****  WEATHER ACROSS SOUTH DAKOTA  *****

CITY           SKY/WX    TMP DP  RH WIND       PRES   REMARKS
SIOUX FALLS    MOSUNNY   66  58  75 CALM      29.95S
BROOKINGS      NOT AVBL
WATERTOWN      SUNNY     64  54  69 SW6       29.91S
HURON          SUNNY     64  54  69 VRB3      29.92S
SISSETON         N/A     69  53  56 W13       29.86S
ABERDEEN       MOSUNNY   62  56  80 S8        29.88F
MITCHELL       SUNNY     64  56  75 CALM      29.94F
PIERRE         SUNNY     63  51  65 SW12      29.90F
MOBRIDGE       MOSUNNY   62  55  77 S6        29.86S
RAPID CITY     SUNNY     65  49  56 S7        29.95S
$$

  *****  SOME WEATHER IN NEARBY STATES *****

CITY           SKY/WX    TMP DP  RH WIND       PRES   REMARKS
GLASGOW MT     SUNNY     58  44  60 W8        29.82S
GREAT FALLS MT CLOUDY    57  40  52 SW7       29.89R
CHEYENNE WY    SUNNY     61  41  47 SW12      30.15S
SCOTTSBLUFF NE SUNNY     59  51  75 E6        30.06F
OMAHA NE       MOSUNNY   68  58  70 NW6       30.01S
DES MOINES IA  MOSUNNY   70  58  65 NW7       29.97R
DAVENPORT IA   MOSUNNY   70  60  70 N13G22    29.95R
CHICAGO IL     PTSUNNY   75  62  64 W3        29.91R
EAU CLAIRE WI  MOSUNNY   68  59  73 NW6       29.88R
LA CROSSE WI   MOSUNNY   69  57  65 SW10      29.91R
$$

  *****  SOME NATIONAL WEATHER *****

CITY           SKY/WX    TMP DP  RH WIND       PRES   REMARKS
LA GUARDIA NY  PTSUNNY   86  71  60 W6        29.91F HX  91
RALEIGH NC     MOSUNNY   87  72  60 VRB3      30.08R HX  93
ATLANTA GA     MOSUNNY   84  72  67 NW5       30.13S
NEW ORLEANS LA PTSUNNY   87  76  69 S12       30.06S HX  97
OKLAHOMA CITY  CLOUDY    77  70  79 E13       29.97F
ALBUQUERQUE NM MOSUNNY   72  38  29 N7        30.17R
SALT LAKE CITY SUNNY     66  44  45 SE9       30.04S
LOS ANGELES CA PTSUNNY   72  61  68 E6        29.86F
BOISE ID       SUNNY     61  38  42 CALM      29.96S
SEATTLE WA     CLOUDY    62  53  72 NE6       29.95F
$$

*** WEATHER ACROSS MANITOBA...SASKATCHEWAN AND ONTARIO ***
                ***ONTARIO***

CITY           SKY/WX    TMP DP  RH WIND       PRES   REMARKS
GERALDTON      MOSUNNY   63  55  77 W9        29.68R
THUNDER BAY    MOSUNNY   68  55  64 W8        29.74S
SIOUX LOOKOUT  MOSUNNY   61  50  67 NW8       29.72R
TORONTO        CLOUDY    75  68  78 SW9       29.84S
BIG TROUT LK     N/A     55  54  94 MISG      29.55R
PICKLE LAKE    MOSUNNY   59  50  72 W10       29.65R
DRYDEN         SUNNY     61  50  67 W9        29.74R
KENORA         MOSUNNY   61  52  72 SW8       29.74S
$$
                *** MANITOBA***

CITY           SKY/WX    TMP DP  RH WIND       PRES   REMARKS
BRANDON        PTSUNNY   59  50  72 SW6       29.71F
DAUPHIN        MOSUNNY   64  50  59 W9        29.66S
ISLAND LAKE    MOSUNNY   59  52  77 W6        29.58S
PILOT MOUND      N/A     66  48  52 SW10        N/A
THE PAS        PTSUNNY   57  52  82 W8        29.60S
THOMPSON       MOSUNNY   57  52  82 W6        29.52S
WINNIPEG       MOSUNNY   63  50  63 W6        29.73F
CHURCHILL      CLOUDY    52  52 100 SE7       29.50R
GILLAM         PTSUNNY   57  52  82 SW3       29.49S
$$
                ***SASKATCHEWAN***

CITY           SKY/WX    TMP DP  RH WIND       PRES   REMARKS
ESTEVAN        PTSUNNY   61  50  67 W13       29.73S
KINDERSLEY     PTSUNNY   52  46  82 VRB2      29.77S
LLOYDMINSTER   PTSUNNY   52  46  82 W5        29.73
PRINCE ALBERT  PTSUNNY   55  52  88 W9        29.68S
REGINA         MOSUNNY   59  50  72 NE5       29.73R
YORKTON        CLOUDY    54  50  87 W5        29.70
N. BATTLEFORD  SUNNY     54  48  82 NW9       29.75R
LA RONGE       MOSUNNY   50  50 100 W6        29.66R
SASKATOON      MOSUNNY   55  50  82 NW7       29.74S
SWIFT CURRENT  MOSUNNY   54  46  76 W14       29.79R
$$
NOTE: THESE ARE AUTOMATED STATIONS WITH LIMITED QUALITY CONTROL
      "FAIR" INDICATES FEW OR NO CLOUDS BELOW 12,000 FEET WITH NO
      SIGNIFICANT WEATHER AND/OR OBSTRUCTIONS TO VISIBILITY.
      SKY/WX - SKY CONDITION AND SIGNIFICANT WEATHER.
      TMP - AIR TEMPERATURE.    DP   - DEWPOINT TEMPERATURE.
      RH  - RELATIVE HUMIDITY.  PRES - PRESSURE.
      HX  - HEAT INDEX.         WCI  - WIND CHILL INDEX.
$


USA.gov is the U.S. government's official web portal to all federal, state and local government web resources and services.